YUNHAI-2 03 (43911 NORAD) Tracking and Keplerian Element Data

This shows tracking and keplerian element data for the satellite.

Feedback or suggestion? Click here.




ElementValue
Catalog43911
NameYUNHAI-2 03
Epoch Orbit32070
Epoch Day35.18984507
Epoch Year2025
RAAN300.7464
Inclination50.0136
Eccentricity5.88E-05
Argument of Perigee172.3853
Mean Anonmoly187.7071
Mean Motion14.28687411
Decay Rate4.21E-06
L11 43911U 18112C 25035.18984507 .00000421 00000+0 23018-3 0 9991
L22 43911 50.0136 300.7464 0000588 172.3853 187.7071 14.28687411320704



Live tracking and technical data element details for YUNHAI-2 03 (NORAD 43911). YUNHAI-2 03 can be tracked NOW for your location showing map with azimuth and elevation plus other details from your city location.







IsCatalogInMostPopularTable: catalog: 43911, numindb: 529
Update: records affected: 1



GetName: 43911 YUNHAI-2 03

Hit Count: updated at: Sat, 17 May 2025 08:45:37 GMT